Skip Page Navigation
NASA JPL Caltech
NASA Logo - Jet Propulsion Laboratory + View the NASA Portal
+ Center for Near-Earth Object Studies
JPL Home Earth Solar System Stars & Galaxies Technology
JPL Solar System Dynamics
BODIES ORBITS EPHEMERIDES TOOLS PHYSICAL DATA DISCOVERY FAQ SITE MAP
JPL Small-Body Database Browser
Search: [ help ]  
67295 (2000 GK77)
Classification: Main-belt Asteroid          SPK-ID: 2067295
Ephemeris | Orbit Diagram | Orbital Elements | Mission Design | Physical Parameters | Discovery Circumstances ]

[ show orbit diagram ]
Orbital Elements at Epoch 2459200.5 (2020-Dec-17.0) TDB
Reference: JPL 19 (heliocentric ecliptic J2000)
 Element Value Uncertainty (1-sigma)   Units 
e .03743774663645861 4.1904e-08  
a 2.217587554880394 1.1217e-08 au
q 2.134566073856619 8.9883e-08 au
i 7.247569204610804 3.9071e-06 deg
node 32.16961398482371 3.505e-05 deg
peri 115.8175882329738 6.3571e-05 deg
M 151.4950203316134 5.2668e-05 deg
tp 2458692.907206806610
(2019-Jul-28.40720681)
0.00017665 TDB
period 1206.200739467396
3.30
9.1522e-06
2.506e-08
d
yr
n .2984577841984742 2.2646e-09 deg/d
Q 2.30060903590417 1.1637e-08 au
  Orbit Determination Parameters
   # obs. used (total)      426  
   data-arc span      7886 days (21.59 yr)  
   first obs. used      1998-11-18  
   last obs. used      2020-06-21  
   planetary ephem.      DE441  
   SB-pert. ephem.      SB441-N16  
   condition code      0  
   norm. resid. RMS      .57946  
   source      ORB  
   producer      Otto Matic  
   solution date      2021-Apr-13 12:29:11  

Additional Information
 Earth MOID = 1.15292 au 
 Jupiter MOID = 2.67541 au 
 T_jup = 3.641 
[ show covariance matrix ]

Ephemeris | Orbit Diagram | Orbital Elements | Mission Design | Physical Parameters | Discovery Circumstances ]

Physical Parameter Table
Parameter Symbol Value Units Sigma Reference Notes
absolute magnitude H 16.76   n/a E2021B10  

67295 (2000 GK77)          Discovered 2000-Apr-05 by LINEAR at Socorro
Reference: 20030910/Numbers.arcLast Updated: 2004-04-19
Ephemeris | Orbit Diagram | Orbital Elements | Mission Design | Physical Parameters | Discovery Circumstances ]
ABOUT SSD CREDITS/AWARDS PRIVACY/COPYRIGHT GLOSSARY LINKS
FirstGov 2021-Jun-19 10:53 UT
(server date/time)  
NASA Home Page
Site Manager:   Ryan S. Park
Webmaster  Alan B. Chamberlin